La Paz, Mexico

4:52 PM MST on March 30, 2017 (GMT -0700)
Gen Manuel Marquez De Leon

Weather History for MMLP - September, 2013

Change the Weather History Date:

Sunday, September 29, 2013

  Actual Average Record
Temperature  
Mean Temperature 82 °F -  
Max Temperature 94 °F 90 °F 101 °F (2015)
Min Temperature 70 °F 67 °F 68 °F (1996)
Cooling Degree Days 17    
Growing Degree Days 32 (Base 50)    
Moisture  
Dew Point 68 °F    
Average Humidity 63    
Maximum Humidity 88    
Minimum Humidity 44    
Precipitation  
Precipitation 0.00 in - - ()
Sea Level Pressure  
Sea Level Pressure 29.97 in    
Wind  
Wind Speed 5 mph ()    
Max Wind Speed 14 mph    
Max Gust Speed -    
Visibility 10.5 miles    
Events      
Averages and records for this station are not official NWS values.
T = Trace of Precipitation, MM = Missing Value Source: Averaged Metar Reports

Daily Weather History Graph

Daily Weather History Graph

Search for Another Location

Airport or City:

Trip Planner

Search our weather history database for the weather conditions in past years. The results will help you decide how hot, cold, wet, or windy it might be!

Date:

Astronomy

Sep. 29, 2013 Rise Set
Actual Time 7:12 AM MDT 7:10 PM MDT
Civil Twilight 6:50 AM MDT 7:32 PM MDT
Nautical Twilight 6:23 AM MDT 7:59 PM MDT
Astronomical Twilight 5:57 AM MDT 8:25 PM MDT
Moon 2:26 AM MDT (9/29) 3:42 PM MDT (9/29)
Length of Visible Light 12h 42m
Length of Day
11h 57m
Waning Crescent, 26% of the Moon is Illuminated
Sep 29
Waning Crescent
Oct 4
New
Oct 11
First Quarter
Oct 18
Full
Oct 26
Last Quarter

Hourly Weather History & Observations

Time (MDT) Temp. Heat Index Dew Point Humidity Pressure Visibility Wind Dir Wind Speed Gust Speed Precip Events Conditions
5:40 AM 68.0 °F - 64.4 °F 88% 30.01 in 10.0 mi South 4.6 mph - N/A   Clear
5:50 AM 73 °F - 68 °F 80% 29.95 in 2 mi SW 2.2 mph - -  
6:40 AM 68.0 °F - 64.4 °F 88% 29.97 in 10.0 mi South 3.5 mph - N/A   Clear
7:40 AM 68.0 °F - 64.4 °F 88% 29.98 in 10.0 mi South 3.5 mph - N/A   Clear
8:40 AM 71.6 °F - 66.2 °F 83% 30.05 in 10.0 mi South 3.5 mph - N/A   Clear
8:50 AM 77 °F - 69 °F 69% 29.98 in 12 mi South 2.2 mph - -   Clear
9:53 AM 80.6 °F 83.2 °F 68.0 °F 65% 30.01 in 10.0 mi Calm Calm - N/A   Clear
10:41 AM 82.4 °F 86.3 °F 69.8 °F 66% 30.00 in 12.0 mi NNW 8.1 mph - N/A   Clear
11:49 AM 84.2 °F 88.4 °F 69.8 °F 62% 30.04 in 12.0 mi NW 5.8 mph - N/A   Clear
11:50 AM 89 °F - 73 °F 51% 30.00 in 19 mi NW 4.5 mph - -  
12:48 PM 86.0 °F 89.4 °F 68.0 °F 55% 29.97 in 12.0 mi NNW 9.2 mph - N/A   Partly Cloudy
1:40 PM 86.0 °F 89.4 °F 68.0 °F 55% 29.95 in 12.0 mi NNW 10.4 mph - N/A   Partly Cloudy
2:50 PM 90 °F - 72 °F 46% 29.93 in 19 mi NW 6.7 mph - -  
2:51 PM 86.0 °F 89.4 °F 68.0 °F 55% 30.04 in 10.0 mi North 11.5 mph - N/A   Partly Cloudy
3:40 PM 87.8 °F 89.4 °F 64.4 °F 46% 29.90 in 10.0 mi NNW 13.8 mph - N/A   Partly Cloudy
4:48 PM 87.8 °F 90.4 °F 66.2 °F 49% 29.89 in 10.0 mi NNW 11.5 mph - N/A   Partly Cloudy
5:50 PM 89 °F - 70 °F 44% 29.89 in 19 mi NW 4.5 mph - -   Scattered Clouds
5:54 PM 87.8 °F 91.4 °F 68.0 °F 52% 30.01 in 10.0 mi NNW 9.2 mph - N/A   Partly Cloudy
6:48 PM 86.0 °F 89.4 °F 68.0 °F 55% 29.90 in 10.0 mi North 9.2 mph - N/A   Partly Cloudy
7:46 PM 84.2 °F 87.3 °F 68.0 °F 58% 29.91 in 10.0 mi North 6.9 mph - N/A   Clear
8:50 PM 83 °F - 70 °F 57% 29.94 in 2 mi North 4.5 mph - -  
8:53 PM 82.4 °F 85.4 °F 68.0 °F 62% 30.04 in 10.0 mi Calm Calm - N/A   Clear
9:44 PM 80.6 °F 82.7 °F 66.2 °F 61% 29.96 in 10.0 mi Calm Calm - N/A   Clear
10:46 PM 78.8 °F - 66.2 °F 65% 29.97 in 10.0 mi Calm Calm - N/A   Clear
11:45 PM 81 °F - 71 °F 64% 29.93 in 2 mi SSE 4.5 mph - -